Location: Muenchen
(48.1800°N, 11.5800°E)
Time: 22:47:52
(UTC+02:00)

Vanguard 2 Rocket - Visible Passes

Search period start: 25 May 2016 00:00
Search period end: 04 June 2016 00:00
Orbit: 554 x 3329 km, 32.9° (Epoch: 24 May)

Date Brightness Start Highest point End Pass type
(mag) Time Alt. Az. Time Alt. Az. Time Alt. Az.
25 May 8.9 00:21:16 10° WSW 00:35:23 39° S 00:42:57 15° SE visible
25 May 8.7 02:39:29 10° WSW 02:48:20 24° SSW 02:48:43 24° SSW visible
25 May 9.1 23:19:37 10° WSW 23:35:26 41° S 23:45:38 10° ESE visible
26 May 8.7 01:37:28 10° WSW 01:49:16 32° SSW 01:52:14 27° S visible
26 May 9.4 22:18:13 10° SW 22:35:09 41° S 22:46:44 10° ESE visible
27 May 8.9 00:35:30 10° WSW 00:49:46 38° SSW 00:55:47 22° SE visible
27 May 9.2 02:54:39 10° WSW 03:01:33 19° SW 03:01:33 19° SW visible
27 May 9.7 21:17:15 10° SW 21:34:35 39° SSE 21:47:26 10° ESE visible
27 May 9.1 23:33:39 10° WSW 23:49:51 42° S 23:59:21 14° SE visible
28 May 8.9 01:52:09 10° W 02:03:23 28° SSW 02:05:08 26° SSW visible
28 May 9.4 22:32:01 10° WSW 22:49:32 44° S 23:01:31 10° ESE visible
29 May 9.0 00:49:56 10° W 01:04:00 35° SSW 01:08:43 26° SSE visible
29 May 9.6 03:10:41 10° WSW 03:14:30 14° SW 03:14:30 14° SW visible
29 May 9.6 21:30:46 10° SW 21:48:53 44° S 22:02:19 10° ESE visible
29 May 9.2 23:47:53 10° WSW 00:04:09 41° SSW 00:12:18 20° SE visible
30 May 9.2 02:07:12 10° W 02:17:18 22° SW 02:18:04 22° SSW visible
30 May 9.4 22:46:05 10° WSW 23:03:52 45° S 23:15:53 11° ESE visible
31 May 9.1 01:04:36 10° W 01:18:03 31° SSW 01:21:39 27° S visible
31 May 9.6 21:44:39 10° WSW 22:03:11 47° S 22:17:01 10° ESE visible
01 Jun 9.3 00:02:20 10° W 00:18:18 38° SSW 00:25:14 24° SSE visible
01 Jun 9.6 02:22:57 10° W 02:30:58 17° SW 02:31:01 17° SW visible
01 Jun 9.5 23:00:22 10° WSW 23:18:05 44° SSW 23:28:48 16° SE visible
02 Jun 9.4 01:19:35 10° W 01:31:52 25° SW 01:34:35 24° SSW visible
02 Jun 9.7 21:58:49 10° WSW 22:17:26 47° S 22:31:33 10° ESE visible
03 Jun 9.3 00:16:59 10° W 00:32:16 33° SSW 00:38:10 25° S visible
03 Jun 10.0 02:40:45 10° WSW 02:43:57 11° SW 02:43:57 11° SW visible
03 Jun 9.6 23:14:51 10° W 23:32:10 40° SSW 23:41:44 20° SSE visible
